DELTA 1 DEB

Satellite information

Favourite Embed

Satellite Type and Status

DEBRISIN ORBIT

Key statistics

Satellite DELTA 1 DEB at a glance.

Uptime

17392

Days in orbit

Revolutions

≈ 14.3

Per day

Orbit

SSO

Sun Synchronous Orbit

Inclination

99.2

Latest

Satellite identification and parameters

Extended collection of information and parameters for DELTA 1 DEB.

Object identification

Identified? True

Debris? True

Object name: DELTA 1 DEB

International designator: 1978-026GB

Object number (NORAD): 14461

Object ID (CCSDS): 14461

Country: UNITED STATES OF AMERICA (US)

Current information (Y/N): Y

RCS size: SMALL

Orbital parameters

Period: 100.903 minutes

Inclination: 99.1747 deg

SMA: 7179.537 km

Apoapsis: 865.439 km

Periapsis: 737.366 km

RAAN: 16.2784 deg

Eccentricy: 0.00891929

Argument of periapsis: 109.0267 deg

Mean anomaly: 342.9975 deg

Mean motion: 14.27112104 rev/day

Mean motion (dot): 0.0000285 rev/day2

B* drag term: 0.0011389498 1/REarth

Two-line elements (TLE)

Creation date: Oct. 16, 2025, 2:37 a.m.

Reference frame: TEME

Reference center: EARTH

Epoch: Oct. 15, 2025, 9:49 p.m. UTC

TLE line 0: 0 DELTA 1 DEB

TLE line 1: 1 14461U 78026GB 25288.90935166 .00002850 00000-0 11389-2 0 9992

TLE line 2: 2 14461 99.1747 16.2784 0089193 109.0267 342.9975 14.27112104285601

Live tracking on map

Real-time ground track for satellite DELTA 1 DEB.

In-orbit conjunctions

A list of the most updated potential collisions computed for object DELTA 1 DEB.

Target Orbit TCA Probability of collision Miss distance Type
FENGYUN 1C DEB SSO 2025-05-11 12:12:38 0.0001548342 182.0 (m) DEBRIS
THOR ABLESTAR DEB LEO 2025-03-19 16:07:45 0.0008617357 80.0 (m) DEBRIS
SL-8 DEB LEO 2024-09-25 22:41:47 0.0001202211 777.0 (m) DEBRIS
METEOR 2-3 LEO 2024-09-19 17:28:14 0.002005033 87.0 (m) PAYLOAD
IRIDIUM 38 LEO 2024-06-06 17:09:07 0.0001452331 286.0 (m) PAYLOAD

Associated space launch

Earth observation satellite

DELTA 1 DEB was lifted into orbit during the mission ‘Delta 2910 | Landsat 3’, on board a Delta 2910 space rocket.

The launch took place on March 5, 1978, 5:54 p.m. from Space Launch Complex 2W.

For more information about the launch, click the button.

Launch to space Delta 2910 | Landsat 3
Delta 2910 | Landsat 3

Agency: N/A

Status: Launch Successful

Launch date: March 5, 1978, 5:54 p.m. UTC

Rocket: Delta 2910

Launch pad: Space Launch Complex 2W

Location: Vandenberg SFB, CA, USA

...

Latest news about this satellite

There are no fresh news available about this satellite. Check back as we update our databases every day.


Newsletter sign-up

Weekly statistics, charts and insights to help you stay on top of the space industry.